Regional Weather Roundup
Issued by NWS Upton, NY

Current Version | Previous Version | Graphics & Text | Print | Product List | Glossary Off
Versions: 1 2 3 4 5 6 7 8 9 10 11 12 13 14 15 16 17 18 19 20 21 22 23 24 25 26 27 28 29 30 31 32 33 34 35 36 37 38 39 40 41 42 43 44 45 46 47 48 49 50

000
ASUS41 KOKX 271205
RWROKX

REGIONAL WEATHER ROUNDUP
NATIONAL WEATHER SERVICE NEW YORK NY
700 AM EST SAT DEC 27 2014

NOTE: "FAIR" INDICATES FEW OR NO CLOUDS BELOW 12,000 FEET WITH NO
SIGNIFICANT WEATHER AND/OR OBSTRUCTIONS TO VISIBILITY.

NYZ071-072-176-178-NJZ106-104-271300-
NEW YORK CITY METRO AREA


CITY           SKY/WX    TMP DP  RH WIND       PRES   REMARKS
CENTRAL PARK   PTCLDY    45  29  53 W8        30.26R
LAGUARDIA APRT MOCLDY    45  31  58 NW7       30.23R
KENNEDY INTL   MOCLDY    40  34  79 W7        30.26R
NEWARK/LIBERTY MOCLDY    37  31  78 S3        30.25R
BRNX BOT. GARD   N/A     43  32  65 W7        30.25S
TETERBORO      PTCLDY    35  30  82 CALM      30.24R
$$

NYZ177-179-078>081-271300-
LONG ISLAND NEW YORK

CITY           SKY/WX    TMP DP  RH WIND       PRES   REMARKS
FARMINGDALE    MOCLDY    36  30  79 CALM      30.24R
ISLIP          MOCLDY    33  29  85 CALM      30.22R
SHIRLEY        MOCLDY    34  30  85 W3        30.25R
WESTHAMPTON    PTCLDY    24  20  84 CALM      30.25R
MONTAUK POINT    N/A     42  35  76 W5        30.24R
$$

NYZ052-065-067-271300-
HUDSON VALLEY

CITY           SKY/WX    TMP DP  RH WIND       PRES   REMARKS
WHITE PLAINS   MOCLDY    38  30  73 NW7       30.21R WCI  33
NEWBURGH       MOCLDY    36  30  80 W12       30.23R WCI  27
MONTGOMERY     MOCLDY    30  27  88 SW7       30.22R WCI  23
POUGHKEEPSIE   MOCLDY    31  27  85 CALM      30.23R
ALBANY         MOCLDY    32  27  81 CALM      30.21R
$$

NJZ001-105-106-008-010-013-015-019>022-104-271300-
NEW JERSEY

CITY           SKY/WX    TMP DP  RH WIND       PRES   REMARKS
NEWARK/LIBERTY MOCLDY    37  31  78 S3        30.25R
TETERBORO      PTCLDY    35  30  82 CALM      30.24R
CALDWELL       PTCLDY    31  29  92 CALM      30.25R
MORRISTOWN     CLEAR     30  28  93 CALM      30.24R
SOMERVILLE     MOCLDY    28  25  88 CALM      30.24R
SUSSEX         PTCLDY    28  26  92 CALM      30.23S
ANDOVER        NOT AVBL
TRENTON        MOCLDY    38  29  70 NW3       30.25R
MILLVILLE      MOCLDY    29  27  92 CALM      30.27S
ATLANTIC CITY  PTCLDY    32  30  92 SW6       30.27R WCI  26
WRIGHTSTOWN    PTCLDY    31  29  94 E2        30.24R
TOMS RIVER     PTCLDY    28  27  93 CALM      30.25R
BELMAR         MOCLDY    36  27  69 NW5       30.25R WCI  32
$$

PAZ047>061-062-071-271300-
EASTERN PENNSYLVANIA

CITY           SKY/WX    TMP DP  RH WIND       PRES   REMARKS
PHILADELPHIA   MOCLDY    35  31  85 SW3       30.27R
ALLENTOWN      PTCLDY    29  25  85 CALM      30.25R
SCRANTON       MOCLDY    31  28  89 VRB5      30.21F WCI  26
$$

CTZ002-004>006-009-010-012-RIZ004-006-007-MAZ004-011-015-271300-
SOUTHERN NEW ENGLAND
 IN CT

CITY           SKY/WX    TMP DP  RH WIND       PRES   REMARKS
BRADLEY INTL   PTCLDY    30  27  88 S5        30.20R WCI  25
HARTFORD       CLEAR     29  27  92 CALM      30.23R FOG
DANBURY        MOCLDY    29  25  85 CALM      30.23R
WTRBRY/OXFORD  CLEAR     34  21  60 N5        30.21R WCI  30
BRIDGEPORT     MOCLDY    36  31  82 CALM      30.24R
MERIDEN        PTCLDY    28  25  88 CALM      30.23R
NEW HAVEN      MOCLDY    32  27  81 CALM      30.23R
CHESTER        FAIR      34  30  86 W3        30.22R
GROTON         CLEAR     27  26  96 CALM      30.23R FOG
WILLIMANTIC    CLEAR     26  22  84 CALM      30.23R

 IN RI

CITY           SKY/WX    TMP DP  RH WIND       PRES   REMARKS
PROVIDENCE     PTCLDY    34  27  75 W6        30.20R WCI  29
BLOCK ISLAND   CLEAR     39  30  70 W6        30.21R WCI  35
WESTERLY       CLEAR     29  27  92 CALM      30.23R

 IN MA

CITY           SKY/WX    TMP DP  RH WIND       PRES   REMARKS
BOSTON         PTCLDY    40  29  64 W8        30.18R WCI  34
WORCESTER      MOCLDY    33  27  78 W8        30.16R WCI  26
WESTFIELD      PTCLDY    27  24  89 S6        30.19R WCI  20
PROVINCETOWN   PTCLDY    41  32  70 W8        30.17S
NANTUCKET      CLEAR     39  32  76 W5        30.19R
$$

ANZ330-335-338-340-345-350-353-355-271300-
COASTAL MARINE OBSERVATIONS


STATION/POSITION TIME  SKY/WX   TEMP    WIND        PRES    VSBY  WAVE
                                AIR SEA DIR/SP/G                  HT/PER
                 (UTC)          (F)     (DEG/KT/KT) (MB)    (MI)  (FT/S)
NY HARB ENTRANCE 1200            44 44  290/ 12/ 14 1024.8          2/14
4S FIRE IS       1200               47                N/A           3/14
20S FIRE ISLAND  1100            46 49              1023.9          3/15
23SW MTP         1200                                 N/A           3/15
HUDSON CANYON    1200            49 54  280/ 12/ 16 1024.4          4/15
EXECUTION ROCKS  1200            43 42  230/  2/  4   N/A
WESTERN LI SOUND 1200            43     250/  6/  6   N/A           0
CENTRAL LI SOUND 1100            43 44  270/  8/ 10   N/A           1/ 3
EASTERN LI SOUND NOT AVBL
ROBBINS REEF     1200            40                 1023.1
$$


>>>>>>>>>>>>>>>>>>>>>>>>>>>> KEY <<<<<<<<<<<<<<<<<<<<<<<<<<<
>                                                          <
>     SKY/WX - SKY CONDITION/PRESENT WEATHER               <
>     TMP    - TEMPERATURE IN FAHRENHEIT                   <
>     DP     - DEWPOINT IN FAHRENHEIT                      <
>     RH     - RELATIVE HUMIDITY IN PERCENT                <
>     WIND   - DIRECTION AND SPEED IN MPH                  <
>     PRES   - MEAN SEA LEVEL PRESSURE IN INCHES OF HG     <
>     WCI    - WIND CHILL INDEX                            <
>     VSB    - VISIBILITY IN MILES                         <
>     HX     - HEAT INDEX                                  <
>     TC     - TEMPERATURE IN CELSIUS                      <
>     VRB    - VARIABLE WIND DIRECTION                     <
>                                                          <
>>>>>>>>>>>>>>>>>>>>>>>>>>>> KEY <<<<<<<<<<<<<<<<<<<<<<<<<<<




USA.gov is the U.S. government's official web portal to all federal, state and local government web resources and services.